Home   Weather   Umm al-Quwain   Past weeks

Flag for United Arab Emirates Past Weather in Umm al-Quwain, Umm al-Quwain, United Arab Emirates — Yesterday and Last 2 Weeks

Now
108 °F

Clear.


Feels Like: 124 °F
Forecast: 93 / 101 °F
Wind: 14 mph from Northwest

Location: Sharjah International Airport

Current Time: Jul 28, 2017 at 5:00:45 pm

Latest Report: Jul 28, 2017 at 4:00 pm


Visibility: 5 mi

Pressure: 29.47 "Hg

Humidity: 36%

Dew Point: 75 °F

Location of Umm al-QuwainLocation

Past Weather in Umm al-Quwain — Graph

°F

Umm al-Quwain Temperature Yesterday

Maximum temperature yesterday: 113 °F (at 12:00 pm)
Minimum temperature yesterday: 93 °F (at 2:00 am)
Average temperature yesterday: 102 °F

High & Low Weather Summary for the Past Weeks

 TemperatureHumidityPressure
High117 °F (Jul 23, 12:00 pm)84% (Jul 19, 3:00 am)29.56 "Hg (Jul 19, 3:00 am)
Low84 °F (Jul 22, 5:00 am)6% (Jul 23, 12:00 pm)29.36 "Hg (Jul 13, 6:00 pm)
Average100 °F38%29.45 "Hg
* Reported Jul 13 4:00 pm — Jul 28 4:00 pm, Umm al-Quwain. Weather by CustomWeather, © 2017

Note: Actual official high and low records may vary slightly from our data, if they occured in-between our weather recording intervals... More about our weather records

Advertising

Umm al-Quwain Weather History for the Previous 24 Hours

Scroll right to see more
 ConditionsComfort  
Time TempWeatherWind HumidityBarometerVisibility
4:00 pm
Fri, Jul 28
108 °FClear.14 mph36%29.47 "Hg5 mi
3:00 pm109 °FClear.15 mph34%29.47 "Hg5 mi
2:00 pm115 °FClear.3 mph18%29.47 "Hg5 mi
1:00 pm113 °FClear.3 mph21%29.50 "Hg5 mi
12:00 pm113 °FClear.5 mph21%29.53 "Hg5 mi
11:00 am108 °FClear.6 mph23%29.53 "Hg5 mi
10:00 am106 °FClear.7 mph30%29.53 "Hg5 mi
9:00 am102 °FClear.5 mph35%29.56 "Hg5 mi
8:00 am97 °FClear.2 mph50%29.53 "Hg5 mi
7:00 am93 °FClear.2 mph63%29.53 "Hg4 mi
6:00 am91 °FClear.3 mph67%29.53 "Hg4 mi
5:00 am95 °FClear.7 mph56%29.50 "Hg4 mi
4:00 am95 °FClear.2 mph53%29.47 "Hg5 mi
3:00 am95 °FClear.2 mph50%29.47 "Hg5 mi
2:00 am95 °FClear.2 mph50%29.47 "Hg5 mi
1:00 am95 °FClear.5 mph50%29.47 "Hg5 mi
12:00 am97 °FClear.2 mph47%29.50 "Hg5 mi
11:00 pm
Thu, Jul 27
99 °FClear.1 mph44%29.50 "Hg5 mi
10:00 pm100 °FClear.5 mph47%29.47 "Hg5 mi
9:00 pm102 °FClear.5 mph40%29.47 "Hg5 mi
8:00 pm104 °FClear.5 mph40%29.45 "Hg5 mi
7:00 pm104 °FClear.5 mph40%29.45 "Hg5 mi
6:00 pm104 °FClear.9 mph38%29.45 "Hg5 mi
5:00 pm104 °FSunny.12 mph45%29.42 "Hg10 mi
Weather by CustomWeather, © 2017

See weather overviewHow to use our weather pages